Wetbulb
56.52 56.58 56.84 55.27 53.64 52.04 49.62 47.90 45.04 53.20 55.94 45.08 42.37 40.60 45.79 50.41 49.94 46.45 44.21 43.62 41.78 42.17 45.75 43.64 44.27 45.96 48.83 53.62 52.08 45.04 45.49 40.25 38.59 43.39 48.34 49.19 46.19 43.96 42.44 38.37 38.63 43.37 44.43 46.81
56.46 56.68 56.46 55.27 53.38 51.94 46.30 45.05 47.88 54.61 52.33 40.58 40.14 44.17 48.10 50.05 49.48 45.00 43.86 43.19 43.64 47.44 43.84 41.89 46.40 47.83 52.65 52.96 50.92 46.50 45.57 38.86 37.28 40.85 44.42 48.01 44.69 44.93 43.48 39.97 39.75 40.58 41.59 46.55
55.56 56.58 56.01 55.41 53.86 53.43 46.97 46.53 43.39 49.38 49.71 46.60 44.79 42.40 44.81 47.39 49.97 47.85 46.44 44.97 44.45 44.36 42.54 44.73 44.33 46.37 50.79 52.03 52.71 59.87 51.31 38.93 40.87 37.91 41.04 43.66 43.28 47.05 46.92 40.07 36.94 37.77 41.49 48.42
55.25 55.86 55.81 55.37 54.26 53.62 47.96 47.36 44.72 48.78 45.72 47.07 48.46 44.19 45.37 47.18 45.12 46.68 46.16 44.92 46.34 42.66 39.78 41.66 42.58 46.04 47.41 51.50 54.73 51.72 47.05 39.50 40.82 45.20 48.84 49.23 48.49 48.15 49.41 44.51 41.66 40.54 43.93 49.09
55.22 55.66 56.10 55.61 54.70 52.80 47.06 44.46 46.16 51.20 48.62 49.78 48.17 43.95 45.32 45.58 44.73 44.70 43.12 44.16 48.98 48.17 43.37 43.88 41.43 45.39 44.65 45.95 48.37 46.92 46.83 42.67 43.61 44.38 48.86 48.29 47.89 48.66 50.80 50.13 49.69 53.92 53.44 51.93
55.28 56.22 55.99 55.89 55.03 51.67 47.55 51.40 52.07 50.81 47.75 48.60 47.19 43.06 45.85 47.40 46.34 46.92 48.30 47.89 45.68 46.30 48.17 49.59 47.65 48.09 47.15 46.30 45.39 43.72 44.90 42.74 42.09 37.92 44.56 47.54 42.84 46.91 48.79 49.57 50.83 49.95 49.26 52.63
55.55 55.61 55.99 56.18 55.61 54.67 48.13 47.88 48.50 47.91 46.87 49.87 50.62 52.58 52.41 47.77 47.06 46.00 47.25 46.60 44.58 48.95 47.84 47.10 45.39 45.68 46.26 48.61 45.18 43.47 44.17 41.49 40.32 37.68 40.50 35.94 44.05 50.91 51.25 50.11 50.86 53.61 55.14 55.42
56.39 56.53 56.29 56.37 55.57 55.57 52.16 48.52 45.89 48.27 46.32 51.24 52.07 52.75 51.50 46.77 45.67 44.99 46.77 49.16 48.05 46.19 44.76 40.52 40.10 41.70 41.30 43.84 47.23 46.35 45.08 41.70 39.02 36.12 35.87 41.83 47.28 49.51 49.16 47.04 46.85 54.04 55.75 57.18
56.00 56.15 56.44 56.45 56.06 54.99 53.75 48.00 48.98 47.26 48.89 47.35 53.97 51.68 49.59 43.16 42.77 45.04 47.02 48.55 48.01 46.72 41.81 40.60 35.32 34.37 38.83 40.06 43.73 45.42 45.10 44.82 40.79 37.00 34.57 34.56 44.17 51.29 54.23 52.87 43.10 54.05 55.65 54.95
55.50 55.73 56.42 56.70 56.69 54.99 54.04 49.25 49.35 47.81 49.38 51.32 52.85 50.40 49.38 49.98 45.75 44.32 45.13 45.33 44.15 45.01 39.84 39.80 38.22 37.08 43.81 36.14 38.37 39.63 39.74 40.06 37.51 38.33 35.86 40.89 48.34 51.61 54.01 43.92 43.85 54.86 55.67 54.91
55.29 55.66 56.27 56.35 56.31 55.68 53.22 48.41 50.63 48.25 50.83 52.09 55.56 55.42 50.63 49.37 47.50 44.29 46.46 46.24 45.60 42.43 40.14 41.05 39.65 39.05 40.46 38.21 41.74 43.27 42.70 38.08 38.88 36.29 33.16 33.08 51.16 51.68 46.59 50.21 54.05 56.23 55.77 56.49
55.07 55.72 56.22 56.56 55.82 55.74 54.44 45.98 51.75 52.85 52.21 51.64 55.45 56.68 55.76 52.65 52.12 49.56 47.69 47.11 46.88 46.80 43.28 42.48 43.38 40.82 40.77 38.14 37.38 44.07 40.11 44.22 43.30 44.31 40.93 46.40 50.14 50.05 54.27 53.67 56.20 56.82 54.77 59.32
55.41 55.63 56.16 56.44 55.13 55.62 55.07 47.14 48.46 49.87 52.13 51.56 49.44 49.31 52.17 52.05 53.84 52.78 46.13 46.39 50.28 47.58 47.85 45.92 44.02 40.36 42.41 38.36 39.19 42.65 45.40 47.43 44.32 43.84 47.02 50.72 53.11 53.03 53.91 54.46 52.14 53.10 56.37 58.41
55.19 55.67 56.10 55.71 55.09 55.55 55.84 47.50 49.36 47.90 48.94 46.50 49.37 56.72 53.07 55.89 55.18 54.53 50.65 51.16 51.93 50.50 47.88 43.90 40.97 41.39 43.77 41.00 43.50 42.92 45.40 44.51 43.68 44.55 47.82 50.91 51.79 52.08 52.07 52.95 54.17 54.88 55.60 57.23
55.27 55.73 55.57 55.01 55.13 55.59 52.95 49.82 49.66 50.30 48.44 45.47 47.83 53.67 55.60 56.33 53.88 53.04 51.20 50.59 48.87 47.79 44.38 42.02 41.35 45.08 44.98 42.61 41.62 40.75 45.64 43.51 41.97 42.80 48.06 46.22 48.17 51.18 52.97 52.21 52.34 53.85 53.47 53.92
55.55 54.86 54.58 54.58 55.29 53.99 47.25 45.54 49.84 51.08 49.75 48.06 46.51 52.76 53.85 51.46 52.12 51.37 49.56 49.39 48.50 47.39 45.84 43.77 45.97 47.95 44.13 39.37 38.57 45.04 46.72 48.44 48.52 49.41 51.21 50.01 52.23 53.66 54.09 52.20 53.46 53.98 52.84 52.94
54.82 54.05 54.11 54.94 54.32 48.18 45.93 46.70 51.20 49.92 47.79 49.50 46.67 46.98 53.00 53.45 51.08 50.07 49.45 48.97 48.65 47.55 45.21 45.35 46.01 45.59 43.88 39.73 38.22 46.30 48.62 50.55 51.04 51.95 51.33 50.28 51.73 50.83 53.28 54.67 55.23 54.87 54.59 53.80
54.38 54.32 54.54 54.40 52.48 49.81 45.31 48.26 50.69 49.38 49.68 50.89 43.88 44.17 49.24 53.00 46.81 46.71 48.82 47.19 46.86 46.86 46.37 46.17 46.26 46.77 45.48 40.61 44.17 48.28 50.81 51.10 51.49 51.95 51.81 50.94 51.73 51.73 52.59 53.27 53.03 52.20 52.39 53.05
54.00 54.32 54.38 49.64 46.11 44.07 47.55 56.72 53.84 52.29 51.03 44.68 43.93 41.89 44.20 52.86 48.99 47.49 47.99 47.66 42.74 46.67 44.37 44.37 46.97 43.14 41.56 45.36 46.46 51.00 49.93 49.86 50.22 51.72 52.15 52.12 51.60 51.58 52.28 52.62 51.92 50.72 51.10 51.67
53.21 51.69 46.78 42.57 47.48 56.11 57.14 52.61 50.47 49.40 48.07 49.12 46.24 48.91 44.94 50.95 48.73 45.98 45.99 45.90 44.05 41.87 45.69 47.40 43.23 41.80 47.58 50.09 51.10 53.62 52.45 51.93 52.00 49.75 48.40 49.57 50.25 50.70 51.10 50.72 52.72 51.99 51.64 51.45
49.89 46.47 46.14 52.49 56.45 50.33 48.21 44.42 45.01 46.35 42.05 44.15 47.34 46.71 45.50 51.62 47.14 45.85 48.27 46.65 44.01 39.92 43.72 44.51 42.20 42.06 47.73 52.29 51.69 52.95 53.98 53.06 53.11 52.21 51.86 51.85 52.03 50.64 50.44 50.20 51.32 52.46 51.96 51.02
49.75 48.70 50.68 53.25 51.22 47.07 42.06 42.27 43.68 44.32 42.40 45.27 44.50 46.15 49.04 49.78 51.01 46.87 48.50 44.63 45.98 41.28 46.36 44.77 39.25 45.88 49.18 52.21 54.02 54.24 53.10 54.05 53.64 54.43 54.14 53.00 52.16 51.27 50.57 51.45 51.95 51.43 51.57 51.45
52.14 50.83 49.86 48.11 45.65 36.35 39.40 37.45 40.03 40.94 46.81 46.59 45.71 45.47 47.10 49.17 49.59 46.99 45.53 43.08 42.07 49.54 42.51 40.92 41.59 46.56 51.81 51.86 53.30 54.40 54.66 54.88 54.70 54.43 54.31 53.04 51.79 51.95 52.09 51.23 51.75 51.66 50.42 49.84
48.35 46.49 38.93 40.68 38.96 41.07 42.15 43.37 44.39 46.78 47.88 47.20 43.96 47.85 46.54 48.47 45.10 46.03 43.32 45.10 46.07 40.76 39.06 40.76 45.26 50.94 52.19 52.08 53.18 53.44 53.80 54.41 54.31 53.50 53.05 52.36 52.06 51.64 52.06 51.63 51.20 50.20 48.59 47.54
46.85 46.60 38.88 42.42 44.71 45.48 47.65 49.34 49.65 50.47 50.83 48.73 46.68 49.00 48.71 46.97 45.53 47.42 46.41 44.25 41.78 41.28 41.97 44.49 47.48 52.39 52.32 52.00 52.34 52.19 52.33 51.84 52.12 52.68 52.10 52.03 51.90 50.73 49.78 50.02 48.88 48.53 47.80 47.40
46.61 46.09 44.32 45.24 44.75 45.79 47.94 48.19 48.83 52.02 51.42 50.15 49.66 45.92 45.79 44.46 45.49 43.67 42.24 41.06 39.86 41.76 46.10 48.79 52.02 52.29 51.91 51.63 52.14 52.12 51.69 51.21 51.64 52.23 52.06 51.90 50.79 49.31 48.71 49.50 49.44 49.49 48.31 46.35
45.53 42.96 45.55 45.59 45.51 45.72 46.31 49.69 50.29 53.95 51.58 46.41 48.26 42.47 41.49 44.75 42.35 41.89 44.19 41.53 42.51 51.19 52.06 51.82 52.27 53.37 52.38 52.28 51.96 51.94 52.17 52.10 51.90 51.11 51.32 49.57 48.56 49.35 48.05 45.23 45.11 46.74 46.20 45.78
MSLP
1020.05 1019.54 1019.02 1018.47 1017.62 1016.27 1015.29 1015.35 1013.59 1009.52 1009.20 1011.31 1012.12 1011.99 1010.56 1009.15 1008.16 1007.59 1007.71 1007.95 1008.68 1009.39 1009.74 1010.77 1010.83 1010.43 1009.83 1009.57 1009.28 1009.14 1008.73 1008.89 1008.50 1007.30 1006.07 1005.37 1005.41 1006.51 1007.78 1009.46 1010.12 1010.15 1009.96 1008.95
1020.02 1019.61 1019.08 1018.57 1018.03 1017.62 1017.61 1016.32 1013.53 1009.12 1009.33 1010.94 1011.72 1010.65 1009.79 1009.15 1008.24 1007.72 1007.72 1008.23 1008.61 1009.35 1010.51 1011.44 1011.46 1010.88 1009.79 1009.63 1009.60 1009.61 1009.39 1009.63 1009.40 1008.18 1007.00 1005.92 1006.74 1007.08 1007.56 1008.11 1008.94 1009.40 1009.41 1008.41
1019.81 1019.47 1019.10 1018.58 1018.17 1017.88 1017.78 1016.88 1014.46 1011.44 1010.27 1010.35 1010.63 1010.51 1009.65 1008.53 1007.27 1007.20 1007.64 1008.04 1008.41 1009.69 1010.91 1011.71 1011.84 1011.37 1010.40 1009.72 1009.30 1009.19 1009.60 1010.50 1010.54 1010.35 1009.85 1008.76 1008.16 1007.96 1007.66 1007.92 1008.85 1009.01 1008.82 1008.21
1019.55 1019.24 1018.92 1018.49 1018.07 1017.64 1017.82 1016.68 1014.86 1012.61 1011.91 1011.21 1010.84 1010.45 1009.39 1008.47 1007.40 1007.43 1007.68 1008.40 1008.81 1009.63 1011.20 1011.90 1012.09 1011.73 1011.19 1010.12 1009.60 1009.40 1009.87 1010.63 1010.79 1010.36 1010.28 1009.29 1009.25 1009.26 1008.72 1008.42 1008.57 1008.65 1008.32 1008.58
1019.22 1018.94 1018.74 1018.42 1017.94 1017.43 1017.40 1016.50 1015.09 1013.36 1012.57 1011.72 1010.96 1009.42 1008.72 1007.99 1007.50 1007.52 1008.10 1008.64 1009.04 1009.39 1010.71 1011.14 1011.60 1011.96 1011.78 1011.06 1010.10 1010.40 1010.76 1011.28 1011.33 1011.23 1010.47 1010.29 1010.08 1010.24 1009.79 1009.47 1009.24 1008.97 1008.83 1009.04
1018.94 1018.65 1018.40 1018.24 1017.87 1017.49 1017.28 1015.68 1014.75 1014.31 1012.73 1011.90 1011.02 1009.73 1008.34 1007.68 1007.32 1007.78 1007.58 1008.18 1008.99 1009.63 1009.94 1010.33 1010.26 1010.65 1010.98 1011.41 1011.36 1011.53 1011.84 1012.24 1012.84 1012.96 1012.30 1011.30 1011.58 1011.87 1011.64 1011.30 1011.24 1010.88 1010.10 1009.28
1018.54 1018.40 1018.21 1018.00 1017.89 1017.81 1017.92 1016.91 1016.07 1015.23 1013.59 1012.19 1011.12 1009.82 1008.69 1007.51 1007.33 1007.68 1007.91 1008.12 1008.67 1009.26 1009.27 1009.72 1010.41 1011.26 1012.00 1011.92 1011.64 1011.91 1012.62 1013.12 1013.76 1014.16 1013.20 1012.96 1013.00 1012.73 1012.33 1011.85 1011.79 1011.38 1010.79 1010.48
1018.16 1017.98 1017.86 1017.72 1017.63 1017.60 1017.68 1017.29 1016.87 1015.74 1014.05 1012.34 1010.85 1009.75 1008.60 1008.07 1007.80 1007.79 1007.93 1008.32 1008.65 1008.90 1009.73 1011.16 1012.29 1012.82 1012.87 1012.93 1012.57 1012.14 1012.52 1013.52 1014.99 1015.32 1014.91 1014.12 1013.05 1012.38 1012.28 1012.44 1012.69 1012.37 1011.80 1011.62
1017.75 1017.57 1017.39 1017.31 1017.31 1017.24 1017.24 1016.85 1016.64 1016.16 1014.59 1012.10 1010.91 1009.93 1009.27 1008.64 1008.45 1008.49 1008.42 1008.37 1008.31 1009.10 1011.01 1012.68 1014.31 1014.81 1015.10 1014.55 1013.64 1012.87 1013.18 1013.77 1015.00 1016.07 1015.53 1014.44 1013.02 1012.17 1011.96 1012.25 1013.28 1012.81 1012.92 1012.82
1017.33 1017.13 1017.00 1016.84 1016.89 1016.89 1016.92 1016.47 1015.97 1015.71 1014.46 1011.74 1010.55 1010.10 1009.71 1009.14 1008.66 1008.79 1008.89 1008.68 1008.91 1009.69 1012.05 1013.84 1015.17 1015.90 1015.98 1015.61 1014.92 1014.49 1014.43 1015.03 1015.97 1016.35 1015.53 1014.12 1012.88 1012.33 1011.53 1012.23 1013.22 1013.13 1013.47 1013.26
1016.82 1016.72 1016.51 1016.42 1016.47 1016.51 1016.59 1015.75 1015.27 1015.05 1013.99 1011.82 1010.58 1009.93 1009.82 1009.60 1008.95 1009.07 1009.08 1009.32 1010.02 1011.08 1012.71 1014.08 1015.26 1015.84 1016.19 1015.93 1015.03 1014.47 1014.77 1015.76 1016.84 1016.87 1015.57 1013.87 1012.31 1012.10 1011.99 1012.37 1012.67 1012.83 1013.20 1013.57
1016.44 1016.21 1016.07 1015.99 1016.10 1016.08 1016.23 1016.15 1014.33 1014.41 1014.37 1011.88 1010.38 1009.56 1008.78 1008.96 1008.47 1008.34 1008.77 1009.50 1010.00 1010.63 1012.07 1013.45 1014.30 1015.32 1015.85 1015.51 1014.87 1014.05 1014.23 1014.32 1015.24 1015.56 1014.44 1013.12 1012.18 1011.45 1011.61 1011.94 1012.73 1013.20 1012.91 1013.26
1016.00 1015.84 1015.61 1015.58 1015.75 1015.67 1015.77 1015.90 1015.14 1014.21 1013.40 1011.53 1010.59 1008.48 1007.07 1007.42 1007.50 1007.01 1008.30 1009.29 1009.30 1009.96 1010.42 1012.08 1013.20 1013.85 1014.26 1014.53 1013.80 1013.02 1012.98 1012.88 1013.78 1013.95 1012.89 1012.54 1012.36 1011.66 1012.21 1012.24 1012.41 1012.49 1012.92 1013.15
1015.66 1015.46 1015.20 1015.36 1015.38 1015.35 1015.30 1015.67 1014.90 1014.72 1013.90 1012.60 1009.77 1007.86 1007.49 1006.60 1006.63 1006.64 1007.32 1008.12 1008.86 1009.59 1010.34 1011.81 1012.78 1013.23 1012.58 1012.89 1012.51 1012.50 1012.05 1012.01 1012.85 1013.05 1012.37 1012.07 1011.82 1011.57 1011.56 1011.90 1012.19 1012.58 1013.12 1013.47
1015.16 1015.07 1015.04 1015.07 1015.02 1015.02 1015.02 1015.05 1014.28 1014.18 1014.31 1013.15 1010.77 1008.64 1006.95 1006.35 1006.54 1006.88 1007.38 1008.07 1009.01 1010.23 1011.22 1012.19 1012.53 1011.89 1011.99 1012.42 1012.39 1012.33 1011.43 1011.47 1011.98 1012.34 1011.81 1011.71 1011.82 1011.68 1011.47 1012.10 1012.68 1012.92 1013.20 1013.58
1014.79 1014.85 1014.86 1014.88 1014.80 1014.83 1015.08 1014.38 1013.34 1013.49 1013.89 1013.45 1011.56 1008.74 1007.03 1006.29 1006.49 1007.17 1007.69 1008.42 1009.24 1010.23 1011.20 1011.77 1011.73 1011.12 1011.43 1012.61 1012.83 1011.61 1010.86 1010.46 1010.51 1010.99 1011.18 1011.40 1011.55 1011.80 1011.79 1012.31 1012.72 1013.16 1013.76 1014.04
1014.62 1014.70 1014.71 1014.67 1014.61 1014.95 1014.62 1013.90 1013.33 1013.18 1013.88 1013.26 1011.90 1009.77 1007.45 1006.67 1006.91 1007.79 1008.32 1008.52 1009.42 1010.22 1011.06 1011.59 1011.62 1011.42 1011.57 1012.48 1012.55 1011.35 1010.80 1010.48 1010.45 1010.49 1010.86 1011.64 1011.79 1012.22 1012.23 1012.43 1012.98 1013.32 1013.84 1014.45
1014.42 1014.44 1014.38 1014.41 1014.45 1014.42 1013.70 1011.68 1011.60 1012.97 1013.31 1012.60 1012.02 1010.13 1008.50 1007.28 1007.93 1008.52 1008.58 1009.39 1010.05 1010.47 1010.89 1011.37 1011.74 1011.66 1011.80 1012.31 1011.42 1010.81 1010.64 1010.65 1010.72 1010.82 1010.94 1011.29 1011.66 1012.08 1012.53 1012.84 1013.37 1014.08 1014.84 1015.38
1014.21 1014.20 1014.22 1014.39 1014.26 1013.65 1011.91 1011.00 1011.36 1011.76 1012.47 1012.34 1011.79 1010.62 1009.46 1008.26 1008.33 1008.68 1009.31 1009.71 1010.92 1010.79 1011.09 1011.28 1011.71 1012.22 1011.99 1011.21 1011.01 1010.59 1010.52 1010.45 1010.88 1010.87 1011.11 1011.61 1011.99 1012.50 1012.84 1013.22 1013.84 1014.74 1015.75 1016.24
1014.14 1014.32 1014.46 1013.88 1012.15 1010.91 1011.16 1011.37 1011.72 1011.88 1011.85 1011.97 1011.62 1010.40 1009.91 1009.49 1009.22 1009.35 1010.02 1010.31 1010.89 1011.41 1010.89 1010.83 1011.26 1011.74 1010.90 1010.29 1010.14 1010.00 1010.25 1010.18 1010.53 1011.14 1011.57 1011.83 1012.50 1012.83 1013.16 1013.44 1013.91 1014.88 1015.77 1016.40
1014.28 1014.18 1013.71 1012.19 1011.18 1011.27 1011.50 1011.85 1012.06 1011.82 1011.78 1011.07 1010.37 1010.19 1010.28 1010.00 1010.09 1010.34 1010.62 1010.81 1011.14 1011.51 1011.02 1010.89 1011.46 1011.34 1010.59 1009.97 1009.94 1009.74 1009.76 1009.96 1010.29 1010.58 1011.02 1011.56 1012.21 1012.81 1013.32 1014.03 1014.50 1014.93 1015.64 1016.24
1014.36 1014.34 1013.65 1012.74 1011.76 1011.80 1011.95 1011.75 1011.26 1010.95 1010.43 1009.63 1009.41 1009.58 1009.82 1010.47 1010.28 1010.73 1011.30 1011.52 1011.75 1011.77 1011.73 1010.98 1011.20 1010.58 1009.76 1009.62 1009.55 1009.61 1009.69 1009.84 1010.28 1010.47 1011.11 1011.66 1012.26 1012.69 1013.35 1014.05 1014.79 1015.30 1015.90 1016.58
1014.01 1013.92 1013.38 1012.84 1012.35 1012.27 1011.86 1011.01 1010.31 1009.52 1008.66 1008.41 1008.73 1009.71 1010.02 1010.60 1010.69 1011.30 1011.65 1012.06 1012.45 1011.64 1011.87 1010.96 1010.39 1009.52 1009.15 1009.16 1009.11 1009.35 1009.47 1009.66 1010.22 1010.78 1011.11 1011.71 1012.61 1013.24 1013.65 1014.60 1015.19 1015.70 1016.38 1016.95
1013.85 1013.59 1013.46 1013.04 1011.94 1011.14 1010.25 1009.68 1009.08 1008.22 1007.94 1008.19 1008.38 1009.16 1009.81 1010.47 1011.13 1011.64 1011.72 1011.88 1011.99 1012.16 1011.16 1010.13 1009.28 1008.75 1008.70 1008.88 1008.95 1009.28 1009.65 1009.90 1010.40 1010.96 1011.58 1012.24 1012.99 1013.83 1014.42 1014.89 1015.46 1016.07 1016.85 1017.43
1013.69 1013.45 1012.75 1011.70 1010.70 1009.87 1009.55 1009.24 1008.71 1008.08 1007.79 1007.78 1008.11 1008.61 1009.21 1010.22 1011.06 1011.35 1011.15 1011.57 1011.25 1010.02 1009.13 1008.38 1007.75 1007.86 1008.39 1008.76 1008.88 1009.29 1009.84 1010.24 1010.74 1011.28 1012.01 1012.65 1013.31 1014.04 1014.89 1015.48 1015.93 1016.51 1017.28 1017.86
1013.51 1013.01 1012.04 1010.84 1010.50 1009.74 1009.21 1008.87 1008.61 1008.26 1007.94 1007.71 1008.04 1009.14 1009.79 1010.17 1010.23 1010.51 1010.08 1009.50 1008.82 1008.24 1007.65 1007.23 1007.19 1007.72 1008.09 1008.45 1008.88 1009.37 1009.94 1010.57 1011.13 1011.66 1012.29 1012.97 1013.64 1014.24 1014.95 1015.58 1016.11 1016.76 1017.32 1018.03
1012.77 1011.91 1010.98 1010.63 1010.15 1009.62 1009.07 1008.48 1008.22 1007.84 1008.77 1008.78 1008.48 1009.11 1009.42 1009.87 1010.00 1009.73 1009.01 1008.50 1007.84 1007.34 1007.24 1007.22 1007.03 1007.41 1007.88 1008.51 1009.13 1009.48 1009.94 1010.60 1011.25 1011.88 1012.55 1013.17 1013.95 1014.40 1015.02 1015.93 1016.65 1016.98 1017.37 1017.86
Wind_Speed
16 15 14 15 17 24 6 3 2 3 7 5 3 4 6 3 7 1 3 4 4 3 5 5 4 4 2 9 10 7 3 3 2 8 7 8 8 8 7 6 4 2 4 8
14 14 14 12 14 12 3 3 5 5 7 4 4 7 8 6 7 3 3 2 3 3 2 5 2 3 4 5 4 4 6 4 5 11 9 9 7 5 1 4 4 5 5 7
15 12 13 11 12 9 2 2 3 6 4 2 8 5 7 6 6 4 4 4 0 4 4 6 3 3 4 6 4 5 3 3 4 3 6 5 6 12 9 3 4 3 6 5
14 13 10 12 11 10 1 2 5 4 3 5 6 1 5 9 4 3 5 5 5 2 4 3 3 2 6 4 4 4 4 1 3 2 4 5 10 15 15 6 4 5 5 6
13 13 9 11 11 11 2 1 1 6 3 4 6 4 9 9 2 5 1 6 5 8 6 7 7 5 4 5 5 5 4 2 3 5 7 8 5 19 14 10 13 5 5 2
12 10 10 9 11 6 2 4 4 3 4 4 4 3 8 8 9 4 6 8 6 5 3 7 7 10 5 2 1 2 3 3 3 2 5 4 9 10 11 1 11 7 4 3
12 11 10 6 8 4 1 4 2 1 5 1 3 10 5 10 5 7 4 5 5 5 2 2 5 4 6 6 4 4 1 4 3 2 5 4 5 4 0 6 10 11 8 7
12 11 10 8 4 5 2 3 2 2 4 2 7 13 2 3 4 3 4 2 4 2 7 4 6 6 5 7 5 9 4 5 4 4 1 1 3 3 3 4 5 8 7 10
13 12 11 9 5 6 2 4 4 2 2 4 4 5 4 1 3 1 3 2 4 7 4 4 3 1 1 5 9 5 5 8 6 2 4 5 6 4 0 2 2 1 3 9
12 12 12 11 6 6 2 4 2 2 3 5 3 3 4 5 1 3 2 3 3 5 3 3 4 2 0 2 1 3 4 4 4 1 1 5 5 4 4 5 4 7 3 5
12 12 12 10 6 6 2 6 5 3 3 6 4 2 2 6 3 5 5 6 6 4 4 3 3 3 5 2 4 5 3 5 3 2 1 1 6 2 6 4 1 7 4 7
12 12 11 9 5 6 3 4 3 2 4 7 3 12 15 10 17 5 2 6 3 5 5 1 4 3 2 4 3 1 1 8 9 9 7 5 5 3 5 4 6 4 6 6
11 11 10 6 6 7 5 3 4 3 3 5 1 8 6 2 7 4 6 3 4 2 5 5 3 2 5 4 5 3 3 5 4 3 3 4 4 8 5 4 8 5 5 6
10 10 8 5 7 7 5 2 2 1 3 3 7 3 5 5 5 1 5 6 4 5 4 3 3 1 3 4 4 5 6 4 6 2 2 3 3 6 8 9 10 11 13 7
8 7 5 6 8 8 4 4 5 4 2 3 6 11 9 8 4 4 5 6 5 3 3 3 3 2 3 2 3 1 3 6 5 7 6 5 4 5 8 9 8 8 11 11
6 5 6 6 7 4 1 4 0 5 2 1 4 5 6 3 9 8 6 4 3 3 4 3 3 1 5 4 2 5 4 4 8 6 6 7 8 7 5 8 8 8 9 9
4 5 6 7 4 1 4 3 2 4 3 2 5 5 5 1 6 2 3 3 2 3 2 1 3 1 5 4 3 5 1 6 5 7 8 6 5 7 8 10 7 9 8 8
4 5 6 6 5 6 6 5 14 6 3 1 2 6 4 2 2 2 1 3 3 2 3 2 2 2 3 2 6 6 6 7 8 8 6 6 6 7 8 9 8 9 8 11
5 5 5 3 1 2 5 3 12 2 3 2 1 2 4 5 1 2 3 3 2 2 3 3 5 1 4 8 6 3 7 7 9 7 8 8 7 9 9 10 8 12 9 10
4 1 1 3 5 6 4 4 3 3 2 0 3 2 3 1 1 1 3 2 4 2 7 3 4 5 5 7 9 8 8 9 9 7 5 5 6 9 8 9 15 13 10 8
1 2 3 4 5 2 1 2 3 2 2 4 5 5 1 3 3 3 0 2 1 3 7 6 2 3 4 7 8 7 8 8 7 9 8 8 11 9 11 8 8 13 12 11
1 3 4 3 2 1 2 4 3 4 6 3 5 5 5 0 2 4 4 3 3 3 6 3 3 6 8 9 8 8 8 10 9 9 10 11 11 11 11 11 12 8 9 10
2 2 2 2 1 1 5 6 4 4 4 5 4 2 4 3 4 3 3 4 2 3 3 5 7 5 5 8 7 7 8 9 10 7 10 12 9 8 13 10 8 12 11 8
0 1 1 4 4 5 6 4 3 5 1 2 4 4 5 3 4 3 5 4 4 4 7 8 5 8 9 7 7 8 8 9 12 12 12 13 12 11 10 12 11 12 10 7
1 2 4 7 6 4 2 4 3 4 3 1 2 3 4 3 5 3 3 3 5 8 6 5 5 8 10 9 7 9 7 7 9 11 12 13 14 14 11 9 9 10 10 9
2 4 4 4 3 5 3 2 2 3 4 2 4 4 3 2 4 6 8 4 6 4 4 4 5 9 8 8 7 7 8 10 10 11 12 13 14 15 13 11 11 10 10 8
3 5 4 6 4 4 3 2 2 1 5 0 3 2 3 4 3 3 3 4 4 2 0 1 5 12 9 8 7 9 12 13 11 9 11 8 8 11 12 11 7 8 8 8
Wind_Direction
336 335 338 341 343 338 51 346 340 251 143 85 199 205 216 265 327 206 62 77 44 357 19 50 50 4 299 360 348 348 304 131 290 241 280 242 159 177 137 127 245 223 172 253
330 333 335 341 346 30 335 340 264 307 110 175 252 282 272 250 284 254 92 37 106 66 73 98 134 301 285 2 18 338 321 7 1 346 348 11 41 359 256 137 80 202 148 258
329 328 331 335 339 350 103 354 335 314 33 164 177 237 277 281 225 125 163 189 77 122 65 1 195 278 296 320 327 332 108 84 139 176 250 257 352 339 343 115 114 191 220 218
326 327 333 330 330 329 122 156 258 218 296 325 329 219 266 294 185 83 25 28 51 105 100 28 309 290 314 275 350 2 116 214 224 142 1 12 45 15 355 10 279 155 244 187
323 328 327 331 329 337 92 220 15 337 278 278 312 195 230 223 86 119 129 101 90 85 145 186 218 190 178 255 340 35 7 298 32 1 359 26 40 16 19 29 356 3 93 211
318 316 325 335 340 353 333 304 329 113 270 330 347 277 278 180 127 32 113 114 87 66 199 192 221 186 192 48 6 1 80 88 55 245 339 344 19 359 19 102 15 303 242 259
315 318 318 321 336 14 187 269 339 5 274 328 307 317 327 114 114 132 122 122 114 215 302 238 43 47 40 3 354 160 133 98 97 270 0 130 209 243 198 71 21 4 13 50
311 311 307 305 310 310 213 293 334 286 280 325 312 339 322 106 108 113 123 109 176 191 55 39 31 351 31 334 341 357 145 117 68 101 97 300 305 343 30 43 350 347 17 25
306 306 306 300 274 295 250 239 197 285 286 232 313 319 3 199 135 55 90 156 153 72 86 70 100 228 204 320 333 6 60 84 100 116 144 189 224 279 47 137 4 5 12 63
299 300 300 296 277 292 249 273 236 256 256 259 13 21 292 295 112 129 167 172 69 76 81 92 156 199 67 262 311 334 3 21 96 51 248 286 252 283 337 80 239 134 178 117
296 295 294 286 271 286 219 267 228 162 268 286 276 325 346 332 15 130 245 43 353 45 73 111 203 142 205 162 232 167 152 107 33 356 355 267 186 139 100 232 116 142 192 130
292 294 289 279 252 273 195 275 306 159 219 248 281 263 247 200 239 158 23 168 167 192 97 152 120 134 147 179 239 55 131 165 174 183 218 257 291 101 72 137 150 197 126 123
294 294 289 251 256 252 213 265 292 322 275 296 319 256 268 223 221 158 109 309 176 51 163 154 173 164 135 172 243 122 226 149 123 98 259 164 213 92 146 106 110 116 164 153
289 288 284 258 272 264 222 213 270 317 274 260 279 328 278 288 308 31 144 153 56 111 84 105 120 168 163 202 192 129 200 118 143 256 330 37 68 111 107 72 70 74 82 134
290 289 283 282 271 273 253 223 232 216 140 255 283 315 252 254 216 168 122 94 100 82 40 75 222 222 84 340 69 339 177 176 128 211 205 152 191 162 120 99 93 90 80 58
290 299 288 276 283 286 296 319 346 197 248 255 301 279 285 244 143 143 115 126 104 106 133 222 269 240 103 98 187 271 264 162 155 183 167 168 156 153 120 123 126 111 100 94
279 283 281 282 267 123 209 204 175 154 52 207 303 301 283 352 105 63 77 53 107 122 153 182 175 262 89 100 163 248 163 134 112 129 106 76 146 148 135 114 113 106 101 106
282 292 296 288 281 282 297 245 230 145 217 145 255 268 344 18 95 90 125 108 44 341 185 61 134 2 73 165 242 270 140 128 111 118 117 161 137 107 108 112 107 97 88 93
290 299 321 338 175 227 239 129 127 165 147 192 240 230 241 355 127 128 30 102 94 286 155 227 105 284 191 214 186 111 167 150 168 140 124 122 142 135 135 118 83 99 105 105
348 25 122 262 222 178 132 10 53 17 297 228 233 277 268 20 27 95 102 102 178 165 236 107 136 228 242 200 178 151 163 144 142 117 142 123 135 149 144 135 130 128 134 124
214 221 233 264 284 62 54 173 151 197 241 222 225 193 225 339 98 150 52 167 102 154 259 137 205 266 236 197 174 174 165 164 155 167 166 157 152 146 128 123 115 124 128 129
273 282 281 280 6 34 172 200 236 179 217 224 182 207 151 215 85 87 341 84 22 268 333 127 205 241 219 175 187 179 170 138 139 140 142 142 147 146 131 130 132 125 111 107
227 221 355 35 257 47 197 204 233 199 220 185 146 106 126 72 55 69 81 83 216 347 316 224 220 228 188 171 143 145 181 146 146 138 136 134 121 106 123 115 106 111 111 118
297 120 235 196 233 228 204 214 209 247 260 99 154 132 144 139 80 146 119 208 118 214 210 225 221 203 182 165 146 129 153 152 145 145 135 129 119 115 114 115 124 119 111 108
213 203 228 224 237 275 251 250 284 275 273 109 164 73 99 139 123 167 89 126 221 210 217 215 210 172 159 159 153 152 143 130 127 132 131 129 124 121 116 119 114 111 111 110
242 236 262 257 307 273 280 287 283 324 330 304 85 154 119 320 143 197 199 205 207 237 216 226 148 154 156 151 149 148 131 133 136 138 135 133 133 135 135 132 126 127 127 130
226 244 230 260 279 247 243 244 243 53 343 215 44 8 167 127 131 233 210 216 225 204 205 49 152 156 151 135 134 140 140 141 143 131 136 133 124 128 129 129 137 137 140 147